FW6197 Weather Reports


time (UTC)temp
C
wind
direction
speed
KPH
gust
KPH
rain 1hr
cm
rain 24hr
cm
rain mn
cm
humidity
%
barometer
mb
20260504031132 6 195 3.2 3.2 0.00 0.00 0.00 74 1012.2
20260504030628 7 212 0.0 1.6 0.00 0.00 0.00 72 1012.3
20260504030125 6 213 3.2 3.2 0.00 0.00 0.00 74 1012.2
20260504025622 6 208 1.6 1.6 0.00 0.00 0.00 77 1011.9
20260504025119 7 201 0.0 0.0 0.00 0.00 0.00 72 1012.3
20260504024616 7 216 1.6 1.6 0.00 0.00 0.00 72 1012.1
20260504024113 7 191 3.2 3.2 0.00 0.00 0.00 74 1012.2
20260504023609 7 190 3.2 3.2 0.00 0.00 0.00 74 1012.1
20260504023105 7 217 0.0 0.0 0.00 0.00 0.00 72 1012.2
20260504022602 7 208 1.6 1.6 0.00 0.00 0.00 70 1012.1
20260504022058 7 211 0.0 0.0 0.00 0.00 0.00 70 1012.1
20260504021556 8 226 0.0 1.6 0.00 0.00 0.00 69 1012.0
20260504021052 8 202 0.0 0.0 0.00 0.00 0.00 69 1012.1
20260504020549 8 219 0.0 0.0 0.00 0.00 0.00 63 1012.0
20260504020045 8 217 0.0 1.6 0.00 0.00 0.00 67 1012.0
20260504015542 8 190 1.6 1.6 0.00 0.00 0.00 71 1012.3
20260504015038 9 211 0.0 0.0 0.00 0.00 0.00 63 1012.3
20260504014534 9 212 0.0 0.0 0.00 0.00 0.00 59 1012.3
20260504014032 10 213 0.0 0.0 0.00 0.00 0.00 58 1012.3
20260504013529 10 219 0.0 0.0 0.00 0.00 0.00 57 1012.3
20260504013026 10 220 0.0 0.0 0.00 0.00 0.00 55 1012.1
20260504012524 11 211 0.0 0.0 0.00 0.00 0.00 51 1012.3
20260504012022 12 217 0.0 0.0 0.00 0.00 0.00 47 1011.8
20260504011518 11 222 0.0 0.0 0.00 0.00 0.00 47 1011.9
20260504011014 12 220 0.0 0.0 0.00 0.00 0.00 46 1012.0
20260504010510 12 295 1.6 4.8 0.00 0.00 0.00 45 1011.7
20260504010006 12 269 4.8 4.8 0.00 0.00 0.00 44 1011.7
20260504005503 12 259 4.8 4.8 0.00 0.00 0.00 44 1011.9
20260504005000 12 344 6.4 8.0 0.00 0.00 0.00 45 1011.8
20260504004458 12 331 8.0 14.5 0.00 0.00 0.00 43 1012.0
20260504003954 12 264 8.0 11.3 0.00 0.00 0.00 43 1011.5
20260504003450 12 261 8.0 9.7 0.00 0.00 0.00 44 1011.9
20260504002948 12 268 6.4 8.0 0.00 0.00 0.00 42 1011.6
20260504002445 12 253 8.0 11.3 0.00 0.00 0.00 44 1011.8
20260504001942 12 267 4.8 4.8 0.00 0.00 0.00 45 1011.8
20260504001439 12 272 4.8 4.8 0.00 0.00 0.00 44 1011.7
20260504000936 12 323 9.7 14.5 0.00 0.00 0.00 44 1011.9
20260504000433 12 279 4.8 4.8 0.00 0.00 0.00 44 1011.8
20260503235930 12 300 6.4 8.0 0.00 0.00 0.00 43 1011.7
20260503235428 13 309 8.0 11.3 0.00 0.00 0.00 43 1011.8
20260503234925 13 291 8.0 9.7 0.00 0.00 0.00 44 1011.6
20260503234422 13 302 12.9 14.5 0.00 0.00 0.00 41 1011.4
20260503233920 13 306 6.4 8.0 0.00 0.00 0.00 42 1011.4
20260503233417 13 293 3.2 4.8 0.00 0.00 0.00 43 1011.6
20260503232913 13 270 8.0 9.7 0.00 0.00 0.00 41 1011.4
20260503232410 13 266 4.8 8.0 0.00 0.00 0.00 43 1011.6
20260503231908 13 292 0.0 0.0 0.00 0.00 0.00 42 1011.4
20260503231405 13 229 0.0 0.0 0.00 0.00 0.00 41 1011.6
20260503230901 13 298 9.7 11.3 0.00 0.00 0.00 40 1011.3
20260503230358 13 292 6.4 8.0 0.00 0.00 0.00 41 1011.4
20260503225856 13 247 3.2 3.2 0.00 0.00 0.00 42 1011.5
20260503225351 13 355 8.0 9.7 0.00 0.00 0.00 40 1011.3
20260503224848 13 255 17.7 22.5 0.00 0.00 0.00 39 1011.4
20260503224345 13 322 8.0 11.3 0.00 0.00 0.00 41 1011.4
20260503223843 14 321 14.5 17.7 0.00 0.00 0.00 39 1011.3
20260503223340 14 327 9.7 12.9 0.00 0.00 0.00 39 1011.3
20260503222836 14 319 9.7 14.5 0.00 0.00 0.00 40 1011.3
20260503222335 15 325 8.0 9.7 0.00 0.00 0.00 40 1011.3
20260503221832 14 311 14.5 20.9 0.00 0.00 0.00 39 1011.3
20260503221331 13 258 11.3 12.9 0.00 0.00 0.00 40 1011.3
20260503220826 14 314 17.7 29.0 0.00 0.00 0.00 39 1011.2
20260503220323 14 285 14.5 16.1 0.00 0.00 0.00 39 1011.0
20260503215820 14 266 8.0 11.3 0.00 0.00 0.00 40 1011.3
20260503215318 13 330 12.9 14.5 0.00 0.00 0.00 41 1011.3
20260503214815 14 291 12.9 16.1 0.00 0.00 0.00 42 1011.2
20260503214312 14 247 4.8 8.0 0.00 0.00 0.00 41 1011.3
20260503213810 15 299 14.5 16.1 0.00 0.00 0.00 41 1011.3
20260503213307 15 346 9.7 11.3 0.00 0.00 0.00 40 1011.3
20260503212804 14 241 9.7 12.9 0.00 0.00 0.00 41 1011.1
20260503212302 14 315 11.3 12.9 0.00 0.00 0.00 42 1011.0
20260503211759 14 252 8.0 11.3 0.00 0.00 0.00 42 1011.1
20260503211255 14 7 22.5 25.7 0.00 0.00 0.00 41 1011.0
20260503210755 15 314 20.9 27.4 0.00 0.00 0.00 40 1011.1
20260503210253 14 292 19.3 24.1 0.00 0.00 0.00 42 1011.2
20260503205748 15 324 19.3 25.7 0.00 0.00 0.00 42 1011.1
20260503205245 14 307 16.1 17.7 0.00 0.00 0.00 41 1011.3
20260503204741 14 336 16.1 20.9 0.00 0.00 0.00 42 1011.4
20260503204239 14 309 12.9 20.9 0.00 0.00 0.00 41 1011.5
20260503203736 15 220 8.0 11.3 0.00 0.00 0.00 42 1011.5
20260503203234 14 284 14.5 14.5 0.00 0.00 0.00 41 1011.5
20260503202731 13 312 12.9 14.5 0.00 0.00 0.00 43 1011.6
20260503202229 13 231 0.0 0.0 0.00 0.00 0.00 44 1011.5
20260503201726 13 262 17.7 22.5 0.00 0.00 0.00 43 1011.7
20260503201224 13 317 16.1 22.5 0.00 0.00 0.00 41 1011.8
20260503200720 13 307 19.3 24.1 0.00 0.00 0.00 42 1011.8
20260503200216 13 331 17.7 20.9 0.00 0.00 0.00 42 1011.8
20260503195713 13 348 14.5 22.5 0.00 0.00 0.00 44 1011.8
20260503195210 13 215 14.5 20.9 0.00 0.00 0.00 43 1011.8
20260503194707 14 297 9.7 11.3 0.00 0.00 0.00 42 1011.9
20260503194203 14 249 8.0 11.3 0.00 0.00 0.00 43 1011.8
20260503193659 14 236 14.5 17.7 0.00 0.00 0.00 42 1012.2
20260503193155 13 314 9.7 11.3 0.00 0.00 0.00 44 1012.1
20260503192651 13 286 19.3 24.1 0.00 0.00 0.00 42 1012.3
20260503192147 13 297 9.7 12.9 0.00 0.00 0.00 43 1012.5
20260503191643 13 243 11.3 17.7 0.00 0.00 0.00 45 1012.2
20260503191141 13 332 11.3 20.9 0.00 0.00 0.00 45 1012.6
20260503190638 12 274 11.3 14.5 0.00 0.00 0.00 43 1012.4
20260503190134 12 322 14.5 14.5 0.00 0.00 0.00 43 1012.6
20260503185631 12 328 17.7 22.5 0.00 0.00 0.00 43 1012.5
20260503185126 12 327 16.1 17.7 0.00 0.00 0.00 42 1012.8
20260503184621 12 271 17.7 22.5 0.00 0.00 0.00 44 1012.8
20260503184118 12 353 11.3 16.1 0.00 0.00 0.00 44 1013.0
20260503183615 12 341 17.7 17.7 0.00 0.00 0.00 45 1013.1
20260503183112 11 343 12.9 16.1 0.00 0.00 0.00 45 1013.0
20260503182610 12 325 8.0 9.7 0.00 0.00 0.00 45 1013.0
20260503182108 12 326 14.5 17.7 0.00 0.00 0.00 43 1013.0
20260503181605 12 40 11.3 12.9 0.00 0.00 0.00 44 1013.2
20260503181102 12 5 8.0 14.5 0.00 0.00 0.00 43 1013.4
20260503180559 11 345 20.9 25.7 0.00 0.00 0.00 43 1013.1
20260503180056 11 324 9.7 12.9 0.00 0.00 0.00 44 1013.3
20260503175553 11 300 9.7 12.9 0.00 0.00 0.00 46 1013.1
20260503175050 11 300 17.7 38.6 0.00 0.00 0.00 44 1013.4
20260503174547 11 312 6.4 11.3 0.00 0.00 0.00 45 1013.4
20260503174044 11 316 16.1 24.1 0.00 0.00 0.00 45 1013.2
20260503173539 11 260 12.9 14.5 0.00 0.00 0.00 44 1013.6
20260503173035 11 338 19.3 25.7 0.00 0.00 0.00 43 1013.4
20260503172533 11 337 22.5 25.7 0.00 0.00 0.00 44 1013.4
20260503172030 11 342 11.3 12.9 0.00 0.00 0.00 44 1013.7
20260503171526 10 351 12.9 16.1 0.00 0.00 0.00 44 1013.5
20260503171024 10 339 19.3 24.1 0.00 0.00 0.00 45 1013.7
20260503170520 11 349 24.1 35.4 0.00 0.00 0.00 45 1013.7
20260503150912 10 330 12.9 14.5 0.00 0.00 0.00 49 1014.5
20260503150409 10 339 14.5 17.7 0.00 0.00 0.00 49 1014.8
20260503131302 7 104 3.2 4.8 0.00 0.00 0.00 60 1015.3
20260503130800 6 311 9.7 12.9 0.00 0.00 0.00 61 1015.4
20260503130257 6 344 6.4 8.0 0.00 0.00 0.00 60 1015.4
20260503110650 -1 212 0.0 1.6 0.00 0.00 0.00 97 1015.8
20260503110148 -1 221 0.0 0.0 0.00 0.00 0.00 97 1015.8
20260503100114 -1 222 0.0 0.0 0.00 0.00 0.00 96 1015.1
20260503081504 0 223 0.0 0.0 0.00 0.00 0.00 90 1015.2
20260503081001 1 223 0.0 0.0 0.00 0.00 0.00 89 1015.1
20260503080457 1 221 0.0 0.0 0.00 0.00 0.00 88 1015.1
20260503072933 2 226 0.0 0.0 0.00 0.00 0.00 84 1015.0
20260503072431 2 234 1.6 1.6 0.00 0.00 0.00 83 1015.1
20260503071928 2 237 1.6 1.6 0.00 0.00 0.00 83 1015.1
20260503071425 2 239 1.6 1.6 0.00 0.00 0.00 83 1014.9
20260503070921 2 242 1.6 3.2 0.00 0.00 0.00 83 1015.1
20260503070418 2 251 3.2 3.2 0.00 0.00 0.00 82 1015.0
20260503054832 2 234 1.6 1.6 0.00 0.00 0.00 83 1015.3
20260503054327 2 228 0.0 0.0 0.00 0.00 0.00 82 1015.5
20260503053826 2 235 1.6 1.6 0.00 0.00 0.00 82 1015.4
20260503053324 2 236 1.6 1.6 0.00 0.00 0.00 81 1015.2
20260503052820 2 239 1.6 1.6 0.00 0.00 0.00 81 1015.4
20260503052317 2 234 1.6 1.6 0.00 0.00 0.00 81 1015.5
20260503051813 2 263 3.2 3.2 0.00 0.00 0.00 81 1015.4
20260503051309 2 245 1.6 3.2 0.00 0.00 0.00 81 1015.8
20260503050806 2 252 3.2 3.2 0.00 0.00 0.00 81 1015.6
20260503050302 2 230 0.0 0.0 0.00 0.00 0.00 80 1015.6
20260503045800 3 232 1.6 1.6 0.00 0.00 0.00 80 1015.5
20260503045258 3 239 1.6 1.6 0.00 0.00 0.00 79 1015.6
20260503044754 3 233 0.0 1.6 0.00 0.00 0.00 79 1015.8
20260503044251 3 259 3.2 3.2 0.00 0.00 0.00 78 1016.1
20260503043748 3 234 1.6 1.6 0.00 0.00 0.00 78 1016.1
20260503043245 2 240 1.6 1.6 0.00 0.00 0.00 79 1016.1
20260503042741 3 238 1.6 1.6 0.00 0.00 0.00 79 1016.1
20260503042238 3 247 3.2 3.2 0.00 0.00 0.00 80 1015.8
20260503041734 3 243 1.6 1.6 0.00 0.00 0.00 79 1016.1
20260503041232 3 237 1.6 1.6 0.00 0.00 0.00 79 1016.1
20260503040729 3 256 3.2 3.2 0.00 0.00 0.00 79 1016.2
20260503040221 3 230 0.0 1.6 0.00 0.00 0.00 79 1016.1
20260503035717 3 251 3.2 3.2 0.00 0.03 0.03 79 1016.2
20260503035215 3 233 1.6 1.6 0.00 0.03 0.03 79 1016.3
20260503034712 3 228 0.0 0.0 0.00 0.03 0.03 79 1016.4
20260503034209 3 244 0.0 1.6 0.00 0.03 0.03 79 1016.1
20260503033706 3 227 0.0 0.0 0.00 0.03 0.03 79 1016.4
20260503033204 3 230 0.0 0.0 0.00 0.03 0.03 78 1016.2
20260503032702 3 236 1.6 1.6 0.00 0.03 0.03 78 1016.0
20260503032200 3 230 0.0 0.0 0.00 0.03 0.03 77 1016.1
20260503031657 3 254 3.2 3.2 0.00 0.03 0.03 76 1016.0
20260503031155 3 253 3.2 3.2 0.00 0.03 0.03 76 1015.8